Regional Weather Roundup
Issued by NWS Charleston, WV

Current Version | Previous Version | Text Only | Print | Product List | Glossary On
Versions: 1 2 3 4 5 6 7 8 9 10 11 12 13 14 15 16 17 18 19 20 21 22 23 24 25 26 27 28 29 30 31 32 33 34 35 36 37 38 39 40 41 42 43 44 45 46 47 48 49 50
000
ASUS41 KRLX 031410
RWRRLX
Regional Weather Roundup
National Weather Service Charleston WV
1000 AM EDT WED JUN 03 2020

Note: "fair" indicates few or no clouds below 12,000 feet with no
significant weather and/or obstructions to visibility.

WVZ003-031500-
Northern Panhandle of West Virginia

CITY           SKY/WX    TMP DP  RH WIND       PRES   REMARKS
WHEELING       SUNNY     75  59  57 W15G22    29.83S
$$

WVZ009-031500-
Northwest West Virginia

CITY           SKY/WX    TMP DP  RH WIND       PRES   REMARKS
PARKERSBURG    MOSUNNY   78  60  53 W12G21    29.87F
$$

WVZ006-031500-
Western West Virginia

CITY           SKY/WX    TMP DP  RH WIND       PRES   REMARKS
HUNTINGTON     SUNNY     79  60  52 SW13      29.95F
$$

WVZ015-031500-
West Central West Virginia

CITY           SKY/WX    TMP DP  RH WIND       PRES   REMARKS
CHARLESTON     MOSUNNY   78  60  53 SW9       29.94F
$$

WVZ022-031-031500-
North Central West Virginia

CITY           SKY/WX    TMP DP  RH WIND       PRES   REMARKS
MORGANTOWN     MOSUNNY   78  59  51 SW9G17    29.85F
CLARKSBURG     MOSUNNY   78  59  51 SW15G26   29.88F
BUCKHANNON     SUNNY     77  61  57 SW16G24   29.92F
$$

WVZ025-035-042-045-031500-
Southern West Virginia

CITY           SKY/WX    TMP DP  RH WIND       PRES   REMARKS
BECKLEY        SUNNY     72  60  66 W13       30.04F
LOGAN          FAIR      75  61  60 SW9       30.02S
PINEVILLE      SUNNY     77  65  65 MISG      30.07F
BLUEFIELD      SUNNY     71  60  68 W15G22    30.08F
LEWISBURG      SUNNY     73  59  60 W10       30.02F
$$

WVZ047-031500-
Northern Mountains of West Virginia

CITY           SKY/WX    TMP DP  RH WIND       PRES   REMARKS
ELKINS         SUNNY     76  57  51 W15G22    29.94F
$$

WVZ052-031500-
Eastern Panhandle of West Virginia

CITY           SKY/WX    TMP DP  RH WIND       PRES   REMARKS
MARTINSBURG    PTSUNNY   80  61  52 W13G22    29.75F
PETERSBURG     MOSUNNY   83  64  52 W13       29.82F
$$

Southeast Ohio/Northeast Kentucky

CITY           SKY/WX    TMP DP  RH WIND       PRES   REMARKS
ATHENS         SUNNY     78  62  58 SW9G17    29.90S
ASHLAND        SUNNY     78  64  61 SW10G16   29.94F
$$




USA.gov is the U.S. government's official web portal to all federal, state and local government web resources and services.